Date String (YYYY-MM-DD hh:mm:ss) UTC,Instrument flags,Ambient pressure (hPa),Sample flow (lpm),Bypass flow (lpm),Sample temperature (°C),Ambient temperature (°C),ASC tube jacket temperature (°C),LED temperature (°C),Box temperature (°C),Sample RH (%),Span deviation,Mass concentration (μg/m³),Mass concentration (μg/m³),Mass concentration (μg/m³)
DateTimeUTC,F1_M11,P_M11,Q1_M11,Q2_M11,T1_M11,T2_M11,T3_M11,T4_M11,T5_M11,U1_M11,ZSPAN_M11,X0_M11,X2_M11,X1_M11
2023-01-13 13:00:00,,0831.5,5.00,0.00,22.4,22.0,00.0,31.2,24.3,08.6,-000.5,0010.82,0007.44,0007.05
2023-01-13 13:01:00,,0831.6,4.99,0.00,22.5,22.9,00.0,31.2,24.5,08.4,0000.0,0010.52,0007.21,0006.84
2023-01-13 13:02:00,,0831.5,4.99,0.00,22.6,22.9,00.0,31.3,24.6,08.4,0000.0,0010.22,0007.02,0006.68
2023-01-13 13:03:00,,0831.5,4.99,0.00,22.6,22.5,00.0,31.3,24.6,08.3,0000.0,0009.98,0006.88,0006.54
2023-01-13 13:04:00,,0831.5,5.00,0.00,22.6,22.2,00.0,31.4,24.5,08.3,0000.0,0009.99,0006.74,0006.41
2023-01-13 13:05:00,,0831.6,5.01,0.00,22.6,22.0,00.0,31.4,24.5,08.3,0000.0,0010.06,0006.63,0006.29
2023-01-13 13:06:00,,0831.6,5.00,0.00,22.6,21.8,00.0,31.4,24.4,08.3,0000.0,0010.01,0006.53,0006.18
2023-01-13 13:07:00,,0831.6,5.00,0.00,22.6,21.6,00.0,31.4,24.4,08.3,0000.0,0009.80,0006.39,0006.05
2023-01-13 13:08:00,,0831.7,5.01,0.00,22.6,21.5,00.0,31.4,24.4,08.4,0000.0,0009.44,0006.27,0005.93
2023-01-13 13:09:00,,0831.7,5.00,0.00,22.6,21.4,00.0,31.4,24.4,08.3,0000.0,0009.33,0006.14,0005.79
2023-01-13 13:10:00,,0831.8,4.99,0.00,22.6,21.3,00.0,31.4,24.3,08.3,0000.0,0009.23,0006.05,0005.70
2023-01-13 13:11:00,,0831.7,5.01,0.00,22.6,21.3,00.0,31.4,24.3,08.4,0000.0,0009.12,0006.01,0005.67
2023-01-13 13:12:00,,0831.7,5.00,0.00,22.6,21.3,00.0,31.4,24.3,08.3,0000.0,0009.04,0005.99,0005.66
2023-01-13 13:13:00,,0831.6,5.00,0.00,22.6,21.3,00.0,31.4,24.3,08.4,0000.0,0009.14,0005.96,0005.64
2023-01-13 13:14:00,,0831.6,5.00,0.00,22.6,21.3,00.0,31.4,24.3,08.8,0000.0,0009.20,0006.02,0005.71
2023-01-13 13:15:00,,0831.7,5.01,0.00,22.6,21.2,00.0,31.4,24.3,08.9,0000.0,0009.22,0006.11,0005.80
2023-01-13 13:16:00,,0831.7,5.00,0.00,22.5,21.1,00.0,31.4,24.2,08.8,0000.0,0009.05,0006.18,0005.86
2023-01-13 13:17:00,,0831.7,5.00,0.00,22.5,21.1,00.0,31.4,24.2,08.7,0000.0,0009.06,0006.19,0005.87
2023-01-13 13:18:00,,0831.6,5.00,0.00,22.5,21.1,00.0,31.4,24.2,08.7,0000.0,0009.13,0006.21,0005.89
2023-01-13 13:19:00,,0831.6,5.00,0.00,22.5,21.1,00.0,31.4,24.2,08.7,0000.0,0009.58,0006.19,0005.88
2023-01-13 13:20:00,,0831.7,5.00,0.00,22.5,21.1,00.0,31.4,24.2,08.6,0000.0,0009.43,0006.10,0005.83
2023-01-13 13:21:00,,0831.7,5.00,0.00,22.5,21.1,00.0,31.4,24.2,08.7,0000.0,0009.36,0006.04,0005.79
2023-01-13 13:22:00,,0831.7,5.01,0.00,22.5,21.1,00.0,31.4,24.2,08.7,0000.0,0009.29,0005.96,0005.71
2023-01-13 13:23:00,,0831.7,5.00,0.00,22.5,21.0,00.0,31.4,24.2,08.7,0000.0,0009.23,0005.91,0005.65
2023-01-13 13:24:00,,0831.7,5.01,0.00,22.5,21.1,00.0,31.4,24.2,08.8,0000.0,0009.19,0005.89,0005.61
2023-01-13 13:25:00,,0831.7,5.00,0.00,22.5,21.0,00.0,31.4,24.2,08.8,0000.0,0009.17,0005.79,0005.51
2023-01-13 13:26:00,,0831.7,4.99,0.00,22.4,21.0,00.0,31.3,24.2,08.9,0000.0,0009.31,0005.66,0005.38
2023-01-13 13:27:00,,0831.7,5.00,0.00,22.4,21.0,00.0,31.3,24.1,08.9,0000.0,0009.80,0005.58,0005.30
2023-01-13 13:28:00,,0831.7,5.00,0.00,22.4,20.9,00.0,31.3,24.1,08.9,0000.0,0009.74,0005.51,0005.24
2023-01-13 13:29:00,,0831.7,4.99,0.00,22.4,21.0,00.0,31.3,24.1,08.8,0000.0,0009.65,0005.46,0005.18
2023-01-13 13:30:00,,0831.7,5.00,0.00,22.4,21.0,00.0,31.3,24.1,08.7,0000.0,0009.21,0005.42,0005.13
2023-01-13 13:31:00,,0831.7,5.00,0.00,22.4,21.0,00.0,31.3,24.1,08.7,0000.0,0009.29,0005.44,0005.13
2023-01-13 13:32:00,,0831.7,5.00,0.00,22.4,21.0,00.0,31.3,24.1,08.7,0000.0,0009.34,0005.48,0005.16
2023-01-13 13:33:00,,0831.7,5.01,0.00,22.4,21.6,00.0,31.3,24.3,08.7,0000.0,0009.41,0005.58,0005.26
2023-01-13 13:34:00,,0831.7,5.00,0.00,22.5,22.5,00.0,31.3,24.5,08.7,0000.0,0009.73,0005.69,0005.36
2023-01-13 13:35:00,,0831.7,5.00,0.00,22.6,23.1,00.0,31.3,24.7,08.7,0000.0,0010.40,0005.79,0005.47
2023-01-13 13:36:00,,0831.7,4.99,0.00,22.7,22.8,00.0,31.3,24.7,08.7,0000.0,0010.42,0005.89,0005.57
2023-01-13 13:37:00,,0831.7,4.99,0.00,22.7,22.5,00.0,31.4,24.6,08.7,0000.0,0010.28,0005.98,0005.65
2023-01-13 13:38:00,,0831.7,5.01,0.00,22.7,22.2,00.0,31.4,24.6,08.8,0000.0,0009.65,0006.02,0005.70
2023-01-13 13:39:00,,0831.7,5.00,0.00,22.7,21.9,00.0,31.4,24.5,08.8,0000.0,0009.65,0006.08,0005.77
2023-01-13 13:40:00,,0831.7,5.01,0.00,22.7,21.8,00.0,31.4,24.5,08.7,0000.0,0009.70,0006.19,0005.88
2023-01-13 13:41:00,,0831.7,5.01,0.00,22.7,21.7,00.0,31.5,24.5,08.8,0000.1,0009.80,0006.35,0006.05
2023-01-13 13:42:00,,0831.7,5.00,0.00,22.7,21.6,00.0,31.5,24.5,08.8,0000.1,0010.06,0006.51,0006.21
2023-01-13 13:43:00,,0831.7,4.99,0.00,22.7,21.5,00.0,31.5,24.4,08.8,0000.0,0010.27,0006.60,0006.29
2023-01-13 13:44:00,,0831.7,5.00,0.00,22.7,21.4,00.0,31.5,24.4,08.8,0000.0,0010.36,0006.63,0006.32
2023-01-13 13:45:00,,0831.7,4.99,0.00,22.7,21.4,00.0,31.5,24.4,08.9,0000.5,0010.11,0006.61,0006.31
2023-01-13 13:46:00,,0831.9,4.99,0.00,22.6,21.3,00.0,31.5,24.4,09.0,0000.7,0009.60,0006.53,0006.25
2023-01-13 13:47:00,,0831.7,4.99,0.00,22.6,21.2,00.0,31.5,24.3,09.0,0000.7,0010.01,0006.45,0006.16
2023-01-13 13:48:00,,0831.7,5.00,0.00,22.6,21.2,00.0,31.5,24.3,09.0,0000.0,0009.91,0006.34,0006.06
2023-01-13 13:49:00,,0831.7,5.01,0.00,22.6,21.1,00.0,31.5,24.3,09.0,0001.4,0009.90,0006.32,0006.02
2023-01-13 13:50:00,,0831.7,5.00,0.00,22.6,21.1,00.0,31.5,24.3,09.0,0000.0,0009.86,0006.28,0005.99
2023-01-13 13:51:00,,0831.7,5.00,0.00,22.6,21.1,00.0,31.5,24.3,09.0,0000.0,0009.75,0006.16,0005.89
2023-01-13 13:52:00,,0831.7,5.01,0.00,22.6,21.1,00.0,31.4,24.3,09.0,0000.0,0009.75,0006.06,0005.75
2023-01-13 13:53:00,,0831.6,5.01,0.00,22.6,21.1,00.0,31.4,24.3,09.1,0000.0,0009.44,0005.89,0005.60
2023-01-13 13:54:00,,0831.7,5.00,0.00,22.5,21.1,00.0,31.4,24.3,09.1,0000.0,0009.28,0005.80,0005.49
2023-01-13 13:55:00,,0831.7,5.01,0.00,22.5,21.1,00.0,31.4,24.3,09.0,0000.0,0009.15,0005.73,0005.42
2023-01-13 13:56:00,,0831.7,5.00,0.00,22.5,21.1,00.0,31.4,24.2,09.3,0000.0,0009.16,0005.68,0005.37
2023-01-13 13:57:00,,0831.7,5.00,0.00,22.5,21.1,00.0,31.4,24.2,09.4,0000.0,0008.80,0005.59,0005.27
2023-01-13 13:58:00,,0831.7,5.00,0.00,22.5,21.0,00.0,31.4,24.2,09.2,0000.0,0008.32,0005.53,0005.23
2023-01-13 13:59:00,,0831.7,5.00,0.00,22.5,21.0,00.0,31.4,24.2,09.4,0000.0,0008.22,0005.44,0005.15
